Location: Auckland
(36.8670°S, 174.7670°E)
Time: 23:38:26
(UTC+13:00)

ERS-1 Rocket - Pass Details

Date: 24 January 2019
Orbit: 754 x 757 km, 98.5° (Epoch: 15 October)

Event Time Altitude Azimuth Distance (km) Brightness Sun altitude
Rises 22:37:08 0° 152° (SSE) 3,242 6.5 -20.3°
Reaches altitude 10° 22:39:55 10° 137° (SE) 2,308 5.5 -20.6°
Enters shadow 22:42:49 22° 104° (ESE) 1,642 4.4 -21.0°
